Theta_e
286 287 287 287 287 286 285 285 288 286 285 285 285 285 284 283 282 282 281 279 279 279
283 283 283 283 284 284 285 285 287 286 282 282 282 282 281 280 279 279 278 277 277 276
280 280 281 281 280 281 282 283 283 282 281 280 279 280 279 278 278 277 276 276 275 275
278 278 278 278 278 278 279 279 279 278 278 278 278 278 277 276 276 275 275 275 274 273
277 277 276 276 276 277 277 278 277 277 276 276 276 276 275 275 275 274 274 273 273 272
277 276 276 275 275 276 276 276 276 275 275 274 274 274 274 274 273 273 273 273 272 272
276 276 276 277 276 276 276 275 274 274 273 273 273 272 272 271 271 271 271 272 272 273
276 277 276 276 276 277 276 276 276 275 274 274 273 272 269 270 269 269 269 271 272 273
275 276 276 276 276 276 275 275 275 274 274 274 275 277 275 271 269 269 270 270 270 272
274 274 274 275 275 275 274 275 274 274 274 273 274 276 275 273 270 269 269 269 269 270
273 273 273 273 272 272 273 273 274 274 275 274 275 276 275 272 269 268 267 267 268 269
272 271 272 271 270 271 272 271 271 272 273 274 274 276 274 271 269 267 267 267 267 268
271 271 270 270 270 271 271 271 271 271 271 271 274 277 275 271 269 267 267 267 267 270
270 269 270 269 269 269 269 269 268 268 268 269 270 274 277 275 270 268 267 266 265 266
Wind_Speed
13 8 8 10 8 7 6 9 7 14 17 17 15 14 15 14 13 14 13 16 13 9
13 13 11 13 11 9 10 7 11 16 19 18 17 16 17 14 15 13 13 15 13 11
13 14 13 13 14 16 14 12 10 18 19 18 17 16 18 15 14 16 13 11 14 12
13 15 13 15 16 16 15 14 9 19 20 18 18 16 19 17 15 19 16 14 16 16
15 16 16 17 18 15 12 11 15 20 22 19 18 16 18 17 16 18 17 15 16 14
17 18 17 18 18 16 16 14 16 21 18 17 17 17 16 17 17 17 16 15 15 13
17 17 15 18 17 17 13 18 18 17 14 17 17 17 15 16 16 16 14 13 12 12
17 16 17 18 14 13 15 16 12 13 16 16 15 10 13 13 12 14 13 13 13 11
15 15 15 13 13 13 12 12 15 15 15 15 11 24 25 16 13 13 10 10 8 8
14 15 13 10 11 11 12 12 14 13 13 13 14 23 22 20 10 10 10 10 10 8
12 12 8 10 10 10 9 11 11 13 12 11 11 18 19 18 10 9 9 8 8 6
9 7 7 11 10 7 9 10 11 8 8 9 10 16 14 11 7 9 7 7 5 5
7 9 9 8 6 6 8 10 8 9 8 8 7 15 12 7 5 7 5 4 4 7
8 7 6 5 5 6 8 8 6 6 4 4 6 6 13 13 6 5 3 4 4 4
Wind_Direction
34 37 46 49 55 51 62 63 67 68 74 72 71 77 75 77 73 74 76 76 66 64
41 41 43 50 59 58 55 57 63 79 78 73 72 75 82 75 73 72 75 70 71 64
49 44 46 55 58 56 55 56 71 78 79 75 71 72 76 76 74 78 70 68 72 65
55 56 52 51 53 50 55 57 40 80 77 72 73 72 78 77 77 80 77 71 70 66
60 61 59 56 58 59 65 71 61 69 72 73 76 77 80 85 73 74 73 72 69 66
64 62 60 61 59 57 56 58 65 67 73 78 76 77 77 78 77 74 69 67 68 65
64 66 65 68 67 62 62 64 62 65 78 77 76 72 72 74 74 73 70 69 70 69
72 69 64 62 65 70 65 69 81 88 71 73 76 74 75 78 78 76 71 59 59 53
74 71 71 69 69 70 74 73 67 66 67 72 76 84 81 76 71 67 70 74 67 65
69 65 56 62 68 68 68 73 71 74 74 73 73 76 77 78 75 74 64 58 51 46
67 71 77 75 67 65 64 66 68 66 65 75 81 83 81 82 80 80 73 65 53 36
69 89 87 70 57 55 73 67 63 56 64 80 75 77 78 77 76 77 72 72 48 19
72 66 60 67 69 64 69 70 61 60 37 32 56 88 91 99 93 80 63 63 54 20
54 62 61 72 60 61 68 69 61 66 21 24 20 46 60 67 69 64 43 26 18 360